Temp
62 60 59 57 57 58 59 59 57 57 57 58 58 58 57 57 57 57 57 57 57 57 58 58 58 58 58 58 57 56 55 55 55 54 54 55 55 55 54 53 53 52 52 52 51 50 51 51 51 51 51 50 51 51 50 49 49 49 50 50 51 51 51 51 51 51 50 50 50
62 60 59 56 55 56 58 57 56 55 56 58 58 58 59 58 58 58 57 58 58 58 58 58 58 58 58 57 56 56 55 55 55 54 54 54 54 54 53 53 52 52 52 52 51 51 51 51 51 51 51 50 50 50 50 49 49 49 50 50 51 50 50 51 51 51 51 51 50
62 61 60 58 57 57 57 56 56 57 58 59 59 59 59 59 58 58 58 58 59 59 58 58 58 58 57 56 56 56 55 55 55 54 54 54 53 53 53 53 52 52 51 52 52 52 52 51 51 51 50 50 50 51 50 49 48 49 50 51 50 50 49 50 51 51 51 50 50
62 61 60 59 58 57 57 57 57 58 59 59 59 59 59 59 59 59 59 59 59 59 58 58 58 58 57 56 55 55 55 55 55 54 54 54 53 52 52 52 52 52 52 51 52 52 52 52 51 51 51 52 52 52 51 49 48 48 49 50 50 49 49 50 50 50 50 50 49
62 61 60 59 58 58 58 59 59 59 59 59 58 58 58 59 59 59 59 58 58 58 58 59 58 58 57 56 55 55 55 54 53 53 54 54 53 52 52 52 53 52 52 51 52 51 51 51 51 51 51 52 52 51 51 50 49 49 49 49 48 49 49 50 50 49 49 49 48
62 61 60 59 59 59 59 60 60 59 58 58 58 58 58 58 58 58 58 58 58 58 58 58 57 57 56 56 55 55 55 54 53 54 54 54 53 52 52 52 53 53 52 51 51 50 50 50 50 50 51 50 51 50 50 49 49 49 49 49 48 48 48 49 49 48 48 48 48
62 61 60 60 59 59 59 60 60 59 59 58 58 58 58 58 58 58 58 58 58 57 57 56 56 56 55 55 55 55 54 54 53 54 54 54 53 52 52 52 52 52 52 51 51 50 50 51 51 50 49 48 49 49 48 48 49 50 50 50 49 48 48 49 48 47 47 47 48
62 61 60 60 61 61 61 61 61 60 59 58 58 58 58 58 58 58 58 58 57 57 56 56 56 56 56 56 56 55 55 54 53 53 53 54 53 52 52 52 52 52 51 51 51 51 50 50 51 51 50 49 49 49 48 46 48 49 50 51 49 48 47 47 47 46 46 47 47
62 61 61 61 61 62 61 61 60 59 59 59 59 58 58 57 58 58 57 57 57 57 57 57 57 56 56 56 56 55 55 54 54 53 53 53 53 52 52 52 52 52 51 50 51 51 51 50 50 51 51 50 50 49 48 46 47 48 50 51 49 47 46 45 45 46 46 47 46
62 62 62 61 61 61 61 61 60 59 59 59 59 58 57 55 56 57 57 57 57 57 57 57 57 57 56 56 56 55 55 54 54 54 53 53 52 52 52 52 53 52 52 51 50 51 51 50 50 51 51 51 51 50 48 46 47 48 49 50 48 47 45 45 44 45 46 46 46
63 63 62 61 61 61 61 60 60 59 59 59 59 58 57 56 56 57 58 58 57 57 57 57 57 57 56 56 56 55 55 55 55 54 54 53 53 53 53 53 53 53 53 52 51 50 50 51 51 51 50 51 51 50 48 46 47 48 49 49 47 46 46 45 44 45 46 46 46
63 63 62 62 61 61 60 59 59 59 59 59 59 59 58 57 58 58 58 58 57 57 57 57 57 57 57 57 56 55 55 55 55 54 54 53 53 53 54 53 53 54 53 52 51 50 51 51 51 51 51 50 50 49 48 47 47 48 48 47 46 46 46 45 45 45 46 46 45
63 63 62 62 61 60 59 59 59 59 59 59 59 59 58 58 58 58 58 57 57 57 57 56 56 56 57 57 56 55 55 54 55 55 54 54 54 54 54 54 53 53 53 52 50 50 51 51 51 52 52 51 50 49 48 47 48 48 48 47 46 46 46 46 45 45 44 44 44
62 62 61 61 60 59 59 59 59 59 59 59 58 58 58 58 57 57 57 58 58 57 57 55 55 56 56 56 55 55 55 55 55 55 55 54 54 54 54 54 53 53 53 51 50 50 51 51 51 52 52 51 50 48 47 47 48 48 49 48 47 46 46 45 44 43 42 42 43
61 61 60 60 59 59 59 59 59 59 58 58 58 58 58 58 57 56 57 58 58 57 56 54 54 55 55 55 55 55 55 55 55 55 55 54 54 54 54 54 53 53 52 51 50 49 50 51 51 52 52 52 50 49 47 46 47 47 48 48 47 46 46 45 43 42 42 42 43
60 60 59 59 58 59 59 59 59 59 58 58 58 58 57 57 56 56 55 57 57 56 55 54 54 54 54 54 54 55 55 54 54 54 55 54 54 54 53 53 53 53 52 51 50 49 49 50 50 50 51 51 50 49 47 46 46 46 46 46 46 46 45 44 43 42 42 42 43
59 59 59 58 58 58 58 59 59 58 58 58 58 57 57 56 55 54 54 55 56 55 54 54 54 54 53 53 53 54 54 54 54 54 55 55 54 54 53 53 53 53 53 52 51 50 49 48 48 48 48 49 49 48 47 45 45 45 45 44 44 44 44 43 43 43 42 42 43
58 58 58 58 58 58 58 58 58 58 58 58 57 56 56 55 54 53 53 54 54 54 54 53 53 53 53 53 53 53 53 54 54 54 55 55 54 54 53 53 53 54 53 53 52 51 50 49 47 46 46 46 46 46 45 45 44 44 44 43 43 43 43 43 43 43 43 42 43
58 57 57 58 58 58 58 58 58 58 58 58 57 56 55 54 53 53 53 54 53 53 53 53 53 53 53 53 52 52 53 54 54 54 55 55 55 54 54 54 54 54 53 53 52 51 50 48 46 45 44 45 44 44 44 44 44 44 43 43 43 43 43 43 43 43 43 43 44
57 57 57 57 58 58 58 58 58 58 58 57 56 55 54 54 54 54 54 53 53 53 53 53 53 53 52 52 52 52 52 53 53 54 55 55 54 54 54 54 54 54 53 52 51 50 49 48 46 44 44 44 43 43 43 43 43 43 43 43 43 43 43 43 43 43 43 43 43
56 57 57 58 58 58 58 58 57 57 56 55 55 54 54 54 54 54 54 54 53 53 53 54 53 53 52 52 52 52 52 52 53 53 54 54 54 53 53 54 54 53 52 51 49 49 48 47 46 44 44 43 43 44 44 44 43 42 42 42 43 43 42 42 42 42 42 42 42
56 57 57 58 58 58 57 57 56 56 55 54 54 54 54 54 54 54 54 54 53 53 53 53 53 52 52 51 52 52 51 51 52 52 53 53 53 52 52 52 52 51 50 50 49 48 47 46 45 44 44 44 44 44 44 44 43 43 42 42 42 42 41 41 41 41 41 41 41
56 56 57 57 57 57 56 56 55 54 54 54 54 54 54 54 54 54 53 53 52 52 52 52 52 52 52 52 52 52 51 50 51 51 52 51 51 51 50 50 50 50 49 49 48 48 47 45 44 44 44 44 45 45 44 43 43 43 42 42 41 41 41 41 41 41 40 40 39
56 55 55 55 56 56 56 55 54 54 54 54 54 54 54 54 54 53 53 52 52 52 52 52 52 52 52 52 52 52 51 51 50 50 50 49 49 49 49 48 48 48 48 47 46 45 45 44 44 44 45 45 45 44 43 42 43 43 42 42 41 41 41 40 40 39 39 38 38
55 55 55 55 55 55 55 55 54 54 54 54 54 54 54 54 53 53 52 52 52 52 52 52 52 51 50 51 51 51 50 50 50 49 49 48 48 48 48 47 47 47 46 45 42 41 41 42 43 44 45 45 44 43 42 41 41 42 42 41 41 41 40 39 38 37 37 38 38
56 56 56 55 55 55 55 55 54 54 54 54 54 54 54 54 53 53 52 51 51 51 51 52 52 50 49 50 50 49 49 49 50 49 49 49 48 47 47 47 46 45 44 43 40 39 39 40 41 41 43 44 43 42 40 40 40 40 41 41 40 40 40 38 38 37 37 37 38
58 57 57 56 56 56 56 56 55 55 54 54 53 53 53 53 53 52 52 51 51 51 51 51 51 49 47 49 49 49 49 49 49 49 49 50 48 47 47 47 46 44 42 41 39 38 38 39 39 39 40 43 42 41 40 40 39 39 39 40 40 40 40 39 39 39 38 38 38
59 58 58 57 57 57 56 56 56 55 54 53 53 52 52 53 52 52 52 51 51 50 50 50 50 49 48 49 49 49 49 49 48 48 49 49 48 47 46 46 45 43 42 40 39 38 38 39 39 39 39 39 40 40 40 40 39 39 40 40 40 40 40 40 40 41 40 40 40
59 59 58 57 57 56 56 56 56 55 54 53 53 52 51 51 51 51 51 51 50 50 49 49 49 48 48 48 48 48 49 49 48 48 48 48 47 46 46 46 45 43 41 39 38 38 39 39 39 38 38 38 40 40 41 41 41 41 41 41 41 40 40 40 41 42 42 42 41
60 59 58 57 56 56 55 55 55 55 54 53 53 52 51 50 51 51 51 51 50 50 49 49 48 48 48 48 48 48 48 48 48 48 47 46 46 46 46 45 46 44 41 38 38 39 39 39 38 38 37 37 39 40 41 42 42 42 42 41 41 40 40 41 42 42 43 43 42
60 59 58 56 55 55 54 54 54 54 53 53 52 51 51 50 51 51 51 51 51 50 50 49 49 48 48 48 48 48 48 47 47 46 46 45 45 45 46 45 45 44 41 38 38 39 39 39 39 38 37 37 38 40 41 42 42 42 42 42 41 41 41 41 42 42 42 43 42
59 58 57 56 55 54 54 54 53 52 52 52 52 51 51 50 51 51 52 51 51 50 49 48 48 47 47 47 47 47 47 46 45 45 45 45 46 46 46 45 45 43 40 38 38 38 39 39 39 38 37 37 38 40 41 41 42 43 43 43 42 41 41 41 42 42 42 42 42
57 57 56 55 54 53 53 52 52 51 50 51 51 51 51 51 51 51 51 51 50 50 49 48 47 47 46 46 46 46 45 45 44 44 44 45 45 46 45 44 44 42 40 38 38 38 38 39 38 38 37 36 38 40 41 42 43 43 43 43 42 42 41 42 42 42 42 42 42
56 55 55 54 54 53 52 52 51 50 50 50 50 50 50 50 51 51 51 50 50 49 49 48 47 47 46 46 45 45 44 44 44 45 45 45 45 44 44 45 45 42 39 38 38 38 38 38 38 38 37 36 38 40 42 42 42 42 42 42 42 41 41 41 42 42 42 42 42
55 54 54 54 53 52 52 51 51 50 50 50 50 50 50 50 51 51 50 48 48 48 48 48 47 47 46 46 46 45 45 44 44 44 44 44 44 43 43 44 44 42 39 38 38 38 38 38 38 38 38 37 39 41 42 42 41 41 41 41 41 41 40 40 40 41 41 41 41
54 53 53 53 52 52 52 51 51 50 49 49 49 49 50 51 52 51 50 47 47 47 47 46 46 45 45 45 45 46 45 45 44 43 42 43 43 43 43 44 44 41 38 38 38 38 38 38 38 38 38 39 41 42 41 41 41 41 41 41 41 41 40 39 39 39 39 39 39
54 53 52 52 52 52 52 51 50 49 49 49 49 50 51 52 51 50 48 46 47 46 46 46 45 45 45 46 46 46 46 45 44 42 41 41 42 43 43 44 44 41 38 37 38 38 38 38 38 38 38 41 42 42 41 40 40 40 40 40 41 41 40 39 38 38 37 37 36
54 53 52 52 52 52 52 51 50 49 50 50 51 51 51 51 49 47 46 46 47 46 46 45 45 46 46 47 46 46 46 45 44 42 42 42 42 43 43 44 44 42 39 38 37 37 38 38 38 38 39 41 42 42 40 39 39 39 39 40 40 41 40 40 38 37 36 35 34
54 54 53 53 53 52 52 51 50 50 50 51 51 51 50 48 47 46 47 48 48 47 46 46 46 47 47 46 46 45 44 43 43 42 42 43 43 43 43 44 43 42 40 38 37 37 38 38 38 38 38 41 42 42 40 39 39 39 39 39 40 40 40 39 38 37 36 34 33
55 54 54 54 53 53 52 52 51 51 50 50 49 49 48 46 46 47 48 49 48 47 47 47 47 46 46 44 44 44 43 42 42 43 43 44 43 42 42 42 43 42 40 39 38 38 38 38 38 38 39 41 43 42 41 40 39 38 38 39 39 39 39 39 38 36 35 34 33
54 54 54 53 53 52 52 52 51 50 49 48 48 47 47 47 48 49 49 48 48 47 47 47 46 46 45 44 44 43 43 42 42 43 44 44 43 41 40 41 41 42 42 41 40 38 38 38 38 38 39 41 42 42 41 40 38 38 38 38 39 39 39 39 38 37 35 35 34
MSLP
1020.76 1020.92 1021.12 1021.24 1021.32 1021.40 1021.48 1021.60 1021.84 1022.04 1022.20 1022.32 1022.48 1022.72 1022.92 1023.08 1023.20 1023.36 1023.56 1023.68 1023.76 1023.92 1024.04 1024.12 1024.28 1024.44 1024.64 1024.84 1025.04 1025.20 1025.36 1025.48 1025.60 1025.76 1025.80 1025.88 1025.96 1026.12 1026.24 1026.32 1026.48 1026.56 1026.64 1026.76 1026.88 1026.96 1027.04 1027.12 1027.20 1027.20 1027.28 1027.32 1027.32 1027.44 1027.52 1027.60 1027.68 1027.72 1027.72 1027.72 1027.72 1027.72 1027.76 1027.72 1027.68 1027.72 1027.76 1027.76 1027.80
1020.48 1020.68 1020.88 1021.08 1021.24 1021.32 1021.40 1021.56 1021.76 1021.92 1022.04 1022.12 1022.28 1022.44 1022.60 1022.80 1022.92 1023.08 1023.28 1023.44 1023.52 1023.64 1023.80 1024.00 1024.16 1024.28 1024.48 1024.68 1024.92 1025.04 1025.20 1025.32 1025.48 1025.60 1025.72 1025.76 1025.88 1026.00 1026.12 1026.24 1026.32 1026.40 1026.48 1026.60 1026.76 1026.84 1026.92 1026.96 1027.04 1027.08 1027.16 1027.24 1027.28 1027.32 1027.40 1027.52 1027.60 1027.60 1027.60 1027.60 1027.60 1027.64 1027.68 1027.64 1027.60 1027.60 1027.60 1027.68 1027.76
1020.28 1020.48 1020.76 1020.92 1021.08 1021.20 1021.28 1021.40 1021.60 1021.72 1021.84 1021.92 1022.08 1022.24 1022.40 1022.52 1022.68 1022.84 1023.04 1023.20 1023.32 1023.52 1023.72 1023.88 1024.04 1024.20 1024.36 1024.60 1024.76 1024.92 1025.04 1025.16 1025.28 1025.40 1025.52 1025.64 1025.76 1025.92 1026.04 1026.08 1026.20 1026.32 1026.40 1026.48 1026.56 1026.64 1026.72 1026.76 1026.84 1026.92 1027.00 1027.08 1027.12 1027.16 1027.24 1027.40 1027.52 1027.52 1027.48 1027.48 1027.52 1027.60 1027.64 1027.60 1027.56 1027.56 1027.60 1027.64 1027.68
1020.04 1020.28 1020.48 1020.64 1020.76 1020.88 1021.00 1021.08 1021.24 1021.40 1021.56 1021.72 1021.92 1022.08 1022.20 1022.40 1022.52 1022.68 1022.88 1023.04 1023.24 1023.40 1023.56 1023.68 1023.84 1024.04 1024.24 1024.48 1024.64 1024.80 1024.92 1024.96 1025.08 1025.20 1025.32 1025.48 1025.60 1025.76 1025.88 1025.96 1026.04 1026.16 1026.28 1026.36 1026.40 1026.48 1026.56 1026.64 1026.76 1026.80 1026.84 1026.92 1026.92 1026.96 1027.08 1027.28 1027.40 1027.44 1027.36 1027.36 1027.44 1027.52 1027.56 1027.52 1027.48 1027.56 1027.60 1027.60 1027.60
1019.80 1020.00 1020.20 1020.32 1020.48 1020.56 1020.68 1020.84 1020.96 1021.12 1021.32 1021.56 1021.76 1021.92 1022.08 1022.28 1022.40 1022.56 1022.76 1022.96 1023.08 1023.24 1023.36 1023.52 1023.68 1023.88 1024.12 1024.32 1024.48 1024.60 1024.76 1024.88 1024.96 1025.04 1025.16 1025.32 1025.48 1025.60 1025.76 1025.84 1025.92 1026.00 1026.12 1026.28 1026.32 1026.36 1026.48 1026.56 1026.64 1026.68 1026.72 1026.76 1026.88 1026.92 1026.96 1027.12 1027.24 1027.28 1027.32 1027.36 1027.44 1027.48 1027.48 1027.44 1027.48 1027.56 1027.60 1027.60 1027.60
1019.52 1019.68 1019.88 1020.04 1020.24 1020.36 1020.52 1020.64 1020.84 1021.04 1021.24 1021.44 1021.60 1021.76 1021.92 1022.08 1022.28 1022.44 1022.60 1022.72 1022.88 1023.04 1023.20 1023.40 1023.56 1023.76 1024.00 1024.20 1024.32 1024.48 1024.60 1024.68 1024.80 1024.92 1025.00 1025.12 1025.32 1025.48 1025.60 1025.68 1025.76 1025.84 1025.96 1026.08 1026.20 1026.32 1026.44 1026.48 1026.56 1026.60 1026.64 1026.72 1026.76 1026.84 1026.96 1027.04 1027.08 1027.12 1027.20 1027.28 1027.36 1027.44 1027.44 1027.40 1027.48 1027.52 1027.56 1027.52 1027.56
1019.20 1019.40 1019.60 1019.84 1020.04 1020.20 1020.36 1020.52 1020.76 1020.96 1021.16 1021.32 1021.48 1021.56 1021.68 1021.84 1022.04 1022.20 1022.32 1022.48 1022.68 1022.92 1023.20 1023.32 1023.48 1023.60 1023.84 1024.04 1024.20 1024.32 1024.48 1024.60 1024.72 1024.80 1024.88 1024.96 1025.16 1025.32 1025.44 1025.52 1025.60 1025.72 1025.84 1025.96 1026.12 1026.24 1026.32 1026.40 1026.48 1026.52 1026.60 1026.68 1026.76 1026.84 1026.96 1027.04 1027.04 1027.04 1027.04 1027.08 1027.24 1027.32 1027.36 1027.36 1027.48 1027.52 1027.52 1027.48 1027.48
1019.04 1019.24 1019.44 1019.60 1019.84 1020.00 1020.20 1020.36 1020.60 1020.80 1021.04 1021.16 1021.20 1021.32 1021.44 1021.60 1021.80 1022.00 1022.20 1022.36 1022.56 1022.76 1023.00 1023.16 1023.28 1023.44 1023.60 1023.80 1023.96 1024.12 1024.28 1024.44 1024.60 1024.68 1024.76 1024.88 1025.00 1025.16 1025.28 1025.36 1025.48 1025.56 1025.72 1025.88 1026.00 1026.08 1026.20 1026.32 1026.36 1026.40 1026.48 1026.56 1026.60 1026.72 1026.84 1026.92 1026.92 1026.92 1026.92 1026.92 1027.04 1027.20 1027.32 1027.32 1027.44 1027.48 1027.48 1027.44 1027.44
1018.92 1019.08 1019.28 1019.48 1019.64 1019.80 1020.00 1020.20 1020.40 1020.60 1020.76 1020.88 1020.96 1021.08 1021.28 1021.48 1021.60 1021.80 1022.04 1022.20 1022.36 1022.52 1022.76 1022.92 1023.04 1023.20 1023.40 1023.56 1023.76 1023.92 1024.12 1024.32 1024.44 1024.56 1024.68 1024.76 1024.92 1025.00 1025.12 1025.24 1025.32 1025.48 1025.60 1025.76 1025.88 1025.96 1026.04 1026.20 1026.28 1026.32 1026.32 1026.40 1026.44 1026.52 1026.68 1026.80 1026.84 1026.80 1026.80 1026.80 1026.92 1027.12 1027.24 1027.32 1027.40 1027.40 1027.40 1027.32 1027.32
1018.60 1018.84 1019.04 1019.28 1019.48 1019.64 1019.84 1020.04 1020.24 1020.36 1020.48 1020.60 1020.76 1020.96 1021.16 1021.32 1021.48 1021.60 1021.76 1021.92 1022.12 1022.32 1022.52 1022.68 1022.88 1023.04 1023.24 1023.36 1023.56 1023.76 1023.96 1024.12 1024.24 1024.36 1024.52 1024.68 1024.76 1024.88 1024.96 1025.04 1025.16 1025.28 1025.44 1025.60 1025.76 1025.84 1025.92 1026.04 1026.16 1026.20 1026.20 1026.28 1026.28 1026.36 1026.52 1026.68 1026.68 1026.68 1026.68 1026.72 1026.84 1027.00 1027.12 1027.24 1027.32 1027.32 1027.28 1027.24 1027.24
1018.24 1018.48 1018.76 1019.00 1019.20 1019.48 1019.68 1019.92 1020.08 1020.24 1020.36 1020.48 1020.60 1020.80 1021.04 1021.20 1021.32 1021.44 1021.56 1021.76 1021.96 1022.16 1022.28 1022.44 1022.68 1022.88 1023.04 1023.20 1023.40 1023.60 1023.80 1024.00 1024.12 1024.24 1024.40 1024.56 1024.68 1024.76 1024.88 1024.92 1025.00 1025.12 1025.24 1025.40 1025.60 1025.72 1025.80 1025.92 1025.96 1026.04 1026.08 1026.16 1026.20 1026.28 1026.36 1026.48 1026.52 1026.52 1026.56 1026.60 1026.76 1026.88 1026.96 1027.04 1027.20 1027.20 1027.16 1027.12 1027.16
1018.04 1018.24 1018.52 1018.76 1019.04 1019.28 1019.52 1019.76 1019.92 1020.08 1020.20 1020.32 1020.48 1020.64 1020.84 1021.00 1021.12 1021.24 1021.40 1021.60 1021.76 1021.92 1022.08 1022.32 1022.48 1022.68 1022.84 1023.04 1023.24 1023.48 1023.72 1023.92 1024.04 1024.20 1024.32 1024.48 1024.60 1024.68 1024.76 1024.84 1024.92 1024.96 1025.08 1025.20 1025.44 1025.52 1025.60 1025.68 1025.76 1025.80 1025.88 1026.00 1026.04 1026.16 1026.24 1026.32 1026.36 1026.40 1026.44 1026.56 1026.64 1026.76 1026.80 1026.88 1027.00 1027.04 1027.04 1027.04 1027.04
1017.88 1018.12 1018.36 1018.60 1018.88 1019.20 1019.36 1019.56 1019.72 1019.88 1020.04 1020.16 1020.28 1020.44 1020.60 1020.80 1020.96 1021.08 1021.24 1021.40 1021.52 1021.76 1022.00 1022.24 1022.44 1022.56 1022.68 1022.88 1023.16 1023.40 1023.60 1023.84 1024.00 1024.12 1024.24 1024.36 1024.48 1024.60 1024.64 1024.72 1024.80 1024.92 1025.00 1025.12 1025.32 1025.36 1025.44 1025.48 1025.56 1025.60 1025.60 1025.76 1025.88 1026.00 1026.08 1026.20 1026.20 1026.24 1026.32 1026.40 1026.52 1026.60 1026.60 1026.72 1026.80 1026.92 1026.92 1027.00 1027.00
1017.80 1018.04 1018.24 1018.48 1018.76 1019.04 1019.24 1019.40 1019.56 1019.72 1019.84 1019.96 1020.08 1020.24 1020.48 1020.64 1020.88 1021.00 1021.12 1021.24 1021.40 1021.60 1021.92 1022.20 1022.40 1022.52 1022.60 1022.76 1023.04 1023.32 1023.52 1023.76 1023.92 1024.04 1024.12 1024.24 1024.40 1024.48 1024.48 1024.60 1024.68 1024.80 1024.92 1025.04 1025.20 1025.28 1025.32 1025.36 1025.36 1025.40 1025.44 1025.52 1025.60 1025.76 1025.92 1026.04 1026.04 1026.08 1026.12 1026.20 1026.32 1026.36 1026.48 1026.56 1026.68 1026.80 1026.88 1026.92 1026.92
1017.76 1017.92 1018.16 1018.44 1018.68 1018.88 1019.12 1019.28 1019.40 1019.56 1019.68 1019.84 1020.00 1020.16 1020.32 1020.56 1020.76 1020.92 1021.04 1021.16 1021.32 1021.56 1021.80 1022.12 1022.32 1022.44 1022.56 1022.72 1022.88 1023.16 1023.36 1023.60 1023.76 1023.92 1024.00 1024.12 1024.20 1024.28 1024.32 1024.44 1024.56 1024.68 1024.84 1024.96 1025.12 1025.20 1025.20 1025.20 1025.20 1025.24 1025.28 1025.32 1025.40 1025.60 1025.76 1025.88 1025.92 1025.96 1026.00 1026.04 1026.08 1026.20 1026.32 1026.40 1026.56 1026.68 1026.76 1026.76 1026.76
1017.72 1017.92 1018.08 1018.32 1018.60 1018.76 1018.92 1019.08 1019.24 1019.40 1019.56 1019.72 1019.88 1020.08 1020.28 1020.44 1020.68 1020.88 1021.04 1021.12 1021.28 1021.48 1021.76 1021.92 1022.12 1022.32 1022.52 1022.68 1022.84 1023.04 1023.24 1023.44 1023.60 1023.76 1023.84 1023.92 1024.04 1024.12 1024.20 1024.28 1024.40 1024.52 1024.68 1024.80 1024.96 1025.04 1025.12 1025.12 1025.12 1025.16 1025.16 1025.20 1025.28 1025.40 1025.60 1025.76 1025.84 1025.88 1025.92 1025.96 1026.00 1026.04 1026.16 1026.28 1026.40 1026.52 1026.60 1026.60 1026.64
1017.64 1017.84 1018.04 1018.24 1018.44 1018.60 1018.72 1018.88 1019.04 1019.20 1019.40 1019.60 1019.80 1020.04 1020.20 1020.32 1020.60 1020.80 1020.96 1021.04 1021.16 1021.36 1021.56 1021.76 1021.92 1022.12 1022.36 1022.60 1022.80 1022.96 1023.12 1023.32 1023.48 1023.56 1023.60 1023.72 1023.80 1023.92 1024.00 1024.04 1024.16 1024.32 1024.48 1024.60 1024.72 1024.84 1024.92 1025.04 1025.08 1025.12 1025.16 1025.20 1025.20 1025.32 1025.48 1025.60 1025.72 1025.76 1025.80 1025.88 1025.92 1026.00 1026.04 1026.16 1026.28 1026.36 1026.48 1026.52 1026.52
1017.60 1017.76 1017.96 1018.16 1018.28 1018.40 1018.52 1018.68 1018.84 1019.00 1019.20 1019.44 1019.64 1019.88 1020.08 1020.28 1020.48 1020.68 1020.80 1020.88 1021.00 1021.16 1021.32 1021.56 1021.76 1021.92 1022.12 1022.40 1022.68 1022.88 1023.04 1023.20 1023.28 1023.32 1023.40 1023.48 1023.56 1023.64 1023.76 1023.84 1023.92 1024.04 1024.20 1024.32 1024.48 1024.60 1024.72 1024.84 1025.00 1025.12 1025.20 1025.20 1025.28 1025.32 1025.44 1025.52 1025.60 1025.64 1025.72 1025.76 1025.88 1025.92 1026.00 1026.04 1026.16 1026.24 1026.32 1026.40 1026.44
1017.48 1017.68 1017.84 1017.96 1018.08 1018.20 1018.36 1018.52 1018.68 1018.84 1019.04 1019.28 1019.52 1019.76 1020.00 1020.20 1020.32 1020.52 1020.68 1020.76 1020.84 1020.92 1021.08 1021.32 1021.60 1021.76 1021.92 1022.16 1022.48 1022.76 1022.88 1023.00 1023.12 1023.20 1023.20 1023.24 1023.32 1023.44 1023.52 1023.60 1023.72 1023.88 1024.04 1024.20 1024.32 1024.40 1024.52 1024.68 1024.88 1025.04 1025.12 1025.20 1025.24 1025.32 1025.36 1025.44 1025.48 1025.52 1025.60 1025.72 1025.76 1025.84 1025.88 1025.96 1026.04 1026.12 1026.20 1026.28 1026.32
1017.40 1017.56 1017.68 1017.76 1017.92 1018.04 1018.24 1018.40 1018.56 1018.76 1018.92 1019.20 1019.48 1019.68 1019.92 1020.04 1020.20 1020.32 1020.44 1020.56 1020.68 1020.84 1020.96 1021.20 1021.40 1021.60 1021.76 1021.96 1022.28 1022.52 1022.76 1022.84 1022.96 1023.04 1023.08 1023.12 1023.20 1023.32 1023.36 1023.48 1023.60 1023.76 1023.92 1024.04 1024.20 1024.32 1024.44 1024.60 1024.76 1024.92 1025.00 1025.04 1025.12 1025.20 1025.28 1025.32 1025.40 1025.48 1025.56 1025.60 1025.68 1025.76 1025.80 1025.88 1025.96 1026.04 1026.16 1026.20 1026.28
1017.44 1017.56 1017.68 1017.76 1017.92 1018.04 1018.16 1018.32 1018.48 1018.72 1018.96 1019.20 1019.40 1019.60 1019.76 1019.92 1020.04 1020.12 1020.20 1020.32 1020.56 1020.76 1020.92 1021.04 1021.20 1021.40 1021.60 1021.80 1022.04 1022.28 1022.48 1022.68 1022.84 1022.92 1023.00 1023.04 1023.16 1023.24 1023.32 1023.40 1023.52 1023.68 1023.88 1024.04 1024.20 1024.32 1024.40 1024.48 1024.64 1024.76 1024.88 1024.96 1025.00 1025.04 1025.12 1025.20 1025.32 1025.44 1025.48 1025.52 1025.60 1025.64 1025.76 1025.84 1025.92 1026.00 1026.08 1026.16 1026.24
1017.60 1017.76 1017.88 1017.96 1018.04 1018.08 1018.20 1018.32 1018.52 1018.76 1018.92 1019.16 1019.32 1019.48 1019.60 1019.76 1019.84 1019.92 1020.04 1020.24 1020.52 1020.76 1020.88 1021.00 1021.12 1021.28 1021.44 1021.60 1021.80 1022.04 1022.32 1022.56 1022.72 1022.84 1022.92 1023.04 1023.12 1023.24 1023.32 1023.40 1023.48 1023.64 1023.80 1024.00 1024.12 1024.24 1024.36 1024.48 1024.52 1024.60 1024.76 1024.80 1024.84 1024.88 1024.96 1025.04 1025.20 1025.32 1025.40 1025.48 1025.52 1025.60 1025.72 1025.80 1025.92 1025.96 1026.04 1026.12 1026.20
1017.60 1017.80 1017.96 1018.04 1018.12 1018.16 1018.24 1018.36 1018.52 1018.68 1018.84 1019.04 1019.24 1019.44 1019.56 1019.68 1019.76 1019.88 1020.04 1020.28 1020.48 1020.64 1020.76 1020.88 1021.04 1021.20 1021.32 1021.44 1021.64 1021.92 1022.16 1022.44 1022.60 1022.76 1022.88 1023.04 1023.16 1023.28 1023.36 1023.44 1023.52 1023.60 1023.76 1023.92 1024.04 1024.16 1024.24 1024.40 1024.48 1024.56 1024.60 1024.64 1024.64 1024.72 1024.84 1024.96 1025.04 1025.16 1025.28 1025.36 1025.44 1025.56 1025.64 1025.76 1025.84 1025.92 1025.96 1026.04 1026.12
1017.28 1017.48 1017.64 1017.88 1018.04 1018.08 1018.12 1018.20 1018.36 1018.48 1018.60 1018.76 1018.96 1019.20 1019.44 1019.64 1019.76 1019.92 1020.04 1020.24 1020.40 1020.52 1020.68 1020.84 1021.00 1021.12 1021.24 1021.40 1021.60 1021.80 1022.04 1022.28 1022.48 1022.68 1022.84 1023.04 1023.16 1023.28 1023.36 1023.48 1023.52 1023.60 1023.68 1023.76 1023.92 1024.04 1024.12 1024.20 1024.32 1024.40 1024.48 1024.48 1024.52 1024.60 1024.76 1024.88 1024.96 1025.04 1025.12 1025.20 1025.32 1025.44 1025.52 1025.60 1025.76 1025.84 1025.92 1025.96 1026.04
1016.80 1017.00 1017.20 1017.44 1017.68 1017.80 1017.92 1017.96 1018.04 1018.12 1018.20 1018.32 1018.60 1018.92 1019.20 1019.48 1019.64 1019.84 1020.00 1020.20 1020.32 1020.48 1020.60 1020.76 1020.92 1021.12 1021.32 1021.48 1021.60 1021.80 1022.00 1022.20 1022.32 1022.48 1022.72 1022.88 1023.08 1023.20 1023.32 1023.40 1023.48 1023.52 1023.60 1023.76 1023.88 1024.00 1024.04 1024.04 1024.04 1024.16 1024.28 1024.32 1024.44 1024.56 1024.68 1024.76 1024.88 1024.92 1025.00 1025.12 1025.20 1025.28 1025.40 1025.48 1025.60 1025.72 1025.76 1025.80 1025.92
1016.56 1016.68 1016.84 1017.04 1017.24 1017.48 1017.64 1017.76 1017.80 1017.92 1018.00 1018.16 1018.40 1018.68 1018.96 1019.20 1019.48 1019.72 1019.92 1020.08 1020.24 1020.44 1020.60 1020.72 1020.88 1021.12 1021.32 1021.44 1021.60 1021.80 1021.96 1022.12 1022.20 1022.32 1022.48 1022.72 1022.88 1023.04 1023.16 1023.24 1023.32 1023.44 1023.56 1023.64 1023.80 1023.92 1023.92 1023.96 1023.92 1024.04 1024.12 1024.20 1024.32 1024.48 1024.60 1024.76 1024.80 1024.88 1024.92 1025.00 1025.04 1025.16 1025.20 1025.32 1025.44 1025.56 1025.64 1025.72 1025.76
1016.36 1016.48 1016.60 1016.76 1017.00 1017.24 1017.44 1017.60 1017.76 1017.96 1018.12 1018.28 1018.48 1018.64 1018.84 1019.04 1019.32 1019.60 1019.84 1020.04 1020.20 1020.44 1020.60 1020.72 1020.88 1021.08 1021.24 1021.36 1021.48 1021.64 1021.84 1022.00 1022.12 1022.20 1022.28 1022.44 1022.64 1022.84 1022.96 1023.08 1023.20 1023.32 1023.44 1023.56 1023.68 1023.76 1023.80 1023.88 1023.92 1023.96 1024.04 1024.08 1024.20 1024.36 1024.48 1024.64 1024.76 1024.84 1024.92 1024.96 1025.00 1025.00 1025.00 1025.04 1025.16 1025.28 1025.40 1025.48 1025.56
1016.12 1016.24 1016.40 1016.64 1016.88 1017.04 1017.24 1017.48 1017.76 1018.00 1018.20 1018.40 1018.56 1018.68 1018.84 1019.04 1019.32 1019.52 1019.76 1019.92 1020.16 1020.36 1020.52 1020.68 1020.80 1020.96 1021.12 1021.24 1021.32 1021.48 1021.60 1021.76 1021.92 1022.04 1022.16 1022.28 1022.44 1022.60 1022.76 1022.88 1023.00 1023.16 1023.28 1023.40 1023.52 1023.60 1023.64 1023.76 1023.84 1023.92 1023.96 1024.04 1024.12 1024.28 1024.40 1024.48 1024.60 1024.76 1024.84 1024.92 1024.88 1024.84 1024.84 1024.88 1024.88 1024.96 1025.04 1025.20 1025.32
1015.92 1016.08 1016.32 1016.48 1016.68 1016.88 1017.16 1017.40 1017.64 1017.88 1018.16 1018.40 1018.60 1018.76 1018.96 1019.12 1019.32 1019.44 1019.60 1019.80 1020.04 1020.24 1020.40 1020.48 1020.64 1020.84 1020.96 1021.04 1021.16 1021.32 1021.48 1021.60 1021.72 1021.88 1022.04 1022.16 1022.32 1022.48 1022.60 1022.76 1022.84 1022.96 1023.12 1023.28 1023.40 1023.48 1023.52 1023.60 1023.72 1023.84 1023.92 1023.96 1024.04 1024.20 1024.28 1024.32 1024.44 1024.60 1024.68 1024.76 1024.72 1024.68 1024.64 1024.64 1024.64 1024.72 1024.76 1024.92 1025.00
1015.80 1016.00 1016.20 1016.40 1016.60 1016.84 1017.08 1017.32 1017.56 1017.80 1018.12 1018.36 1018.60 1018.84 1019.04 1019.20 1019.32 1019.44 1019.56 1019.68 1019.88 1020.04 1020.16 1020.28 1020.48 1020.64 1020.72 1020.84 1021.00 1021.20 1021.36 1021.48 1021.60 1021.76 1021.92 1022.08 1022.20 1022.32 1022.48 1022.56 1022.68 1022.84 1023.04 1023.20 1023.32 1023.36 1023.44 1023.52 1023.64 1023.76 1023.92 1023.96 1024.04 1024.08 1024.16 1024.20 1024.32 1024.44 1024.48 1024.48 1024.48 1024.48 1024.48 1024.44 1024.48 1024.48 1024.56 1024.64 1024.76
1015.80 1015.96 1016.20 1016.40 1016.60 1016.84 1017.04 1017.32 1017.60 1017.88 1018.12 1018.36 1018.60 1018.80 1019.00 1019.16 1019.28 1019.36 1019.44 1019.56 1019.72 1019.84 1020.00 1020.20 1020.32 1020.48 1020.60 1020.72 1020.88 1021.08 1021.28 1021.40 1021.60 1021.76 1021.88 1021.96 1022.04 1022.16 1022.24 1022.36 1022.52 1022.72 1022.88 1023.08 1023.20 1023.28 1023.32 1023.44 1023.56 1023.68 1023.80 1023.92 1023.96 1023.96 1024.04 1024.12 1024.20 1024.20 1024.20 1024.16 1024.16 1024.20 1024.24 1024.24 1024.28 1024.32 1024.36 1024.44 1024.52
1015.88 1016.04 1016.24 1016.48 1016.64 1016.88 1017.08 1017.36 1017.64 1017.92 1018.12 1018.32 1018.52 1018.68 1018.80 1018.88 1019.04 1019.16 1019.32 1019.48 1019.60 1019.80 1020.00 1020.16 1020.24 1020.36 1020.52 1020.72 1020.92 1021.08 1021.20 1021.36 1021.56 1021.72 1021.76 1021.88 1021.92 1021.96 1022.08 1022.24 1022.48 1022.64 1022.80 1023.00 1023.08 1023.16 1023.24 1023.36 1023.48 1023.60 1023.68 1023.80 1023.84 1023.84 1023.92 1023.96 1024.00 1023.96 1023.92 1023.92 1023.92 1023.92 1023.96 1024.04 1024.04 1024.08 1024.16 1024.24 1024.32
1015.96 1016.16 1016.32 1016.52 1016.72 1016.96 1017.20 1017.44 1017.68 1017.92 1018.08 1018.24 1018.36 1018.48 1018.52 1018.60 1018.76 1018.92 1019.16 1019.36 1019.52 1019.72 1019.92 1020.04 1020.20 1020.32 1020.52 1020.72 1020.88 1021.08 1021.24 1021.36 1021.52 1021.64 1021.72 1021.76 1021.72 1021.80 1022.00 1022.20 1022.36 1022.56 1022.76 1022.88 1023.00 1023.08 1023.20 1023.24 1023.36 1023.48 1023.56 1023.72 1023.72 1023.72 1023.76 1023.76 1023.80 1023.76 1023.72 1023.68 1023.68 1023.72 1023.76 1023.76 1023.80 1023.84 1023.92 1023.96 1024.04
1016.04 1016.20 1016.40 1016.60 1016.80 1017.04 1017.28 1017.48 1017.68 1017.88 1018.04 1018.08 1018.20 1018.20 1018.28 1018.36 1018.52 1018.76 1018.96 1019.20 1019.40 1019.60 1019.76 1019.92 1020.08 1020.24 1020.44 1020.60 1020.80 1020.96 1021.08 1021.24 1021.40 1021.52 1021.60 1021.60 1021.64 1021.76 1021.96 1022.16 1022.28 1022.48 1022.64 1022.76 1022.88 1022.96 1023.04 1023.16 1023.20 1023.32 1023.44 1023.48 1023.56 1023.56 1023.56 1023.56 1023.56 1023.56 1023.52 1023.48 1023.48 1023.52 1023.60 1023.60 1023.60 1023.60 1023.68 1023.76 1023.84
1016.04 1016.24 1016.44 1016.64 1016.84 1017.08 1017.28 1017.48 1017.60 1017.76 1017.88 1017.92 1018.00 1018.04 1018.16 1018.28 1018.40 1018.60 1018.84 1019.12 1019.32 1019.56 1019.76 1019.92 1020.08 1020.24 1020.40 1020.60 1020.76 1020.84 1021.00 1021.16 1021.32 1021.40 1021.44 1021.48 1021.60 1021.76 1021.96 1022.08 1022.20 1022.36 1022.52 1022.60 1022.72 1022.80 1022.88 1022.96 1023.04 1023.16 1023.24 1023.32 1023.36 1023.36 1023.36 1023.36 1023.36 1023.32 1023.32 1023.32 1023.32 1023.32 1023.40 1023.48 1023.48 1023.48 1023.52 1023.60 1023.68
1016.04 1016.28 1016.48 1016.64 1016.84 1017.04 1017.20 1017.32 1017.48 1017.60 1017.72 1017.76 1017.80 1017.92 1018.08 1018.20 1018.40 1018.60 1018.84 1019.16 1019.36 1019.56 1019.76 1019.92 1020.12 1020.28 1020.44 1020.60 1020.72 1020.80 1020.92 1021.08 1021.20 1021.32 1021.36 1021.40 1021.52 1021.72 1021.92 1022.04 1022.08 1022.24 1022.40 1022.48 1022.52 1022.60 1022.72 1022.80 1022.88 1023.00 1023.08 1023.16 1023.12 1023.12 1023.16 1023.20 1023.20 1023.16 1023.16 1023.16 1023.12 1023.12 1023.20 1023.32 1023.32 1023.40 1023.48 1023.52 1023.60
1016.08 1016.28 1016.48 1016.68 1016.80 1016.96 1017.08 1017.20 1017.36 1017.48 1017.52 1017.60 1017.68 1017.88 1018.04 1018.24 1018.48 1018.72 1019.00 1019.20 1019.40 1019.56 1019.72 1019.92 1020.12 1020.28 1020.40 1020.56 1020.68 1020.76 1020.88 1021.00 1021.12 1021.24 1021.32 1021.36 1021.48 1021.64 1021.80 1021.92 1021.96 1022.08 1022.24 1022.32 1022.44 1022.48 1022.60 1022.68 1022.76 1022.84 1022.88 1022.92 1022.88 1022.88 1022.96 1023.04 1023.04 1023.00 1023.00 1023.00 1022.92 1022.92 1023.00 1023.08 1023.20 1023.28 1023.36 1023.44 1023.52
1016.12 1016.32 1016.48 1016.64 1016.76 1016.88 1017.00 1017.12 1017.24 1017.32 1017.44 1017.56 1017.76 1017.92 1018.16 1018.36 1018.64 1018.88 1019.12 1019.24 1019.40 1019.56 1019.76 1019.92 1020.08 1020.24 1020.32 1020.48 1020.60 1020.76 1020.88 1021.04 1021.08 1021.20 1021.24 1021.36 1021.48 1021.56 1021.68 1021.76 1021.84 1021.92 1022.08 1022.24 1022.32 1022.36 1022.44 1022.48 1022.52 1022.60 1022.68 1022.68 1022.64 1022.68 1022.76 1022.84 1022.84 1022.84 1022.80 1022.76 1022.76 1022.72 1022.76 1022.92 1023.04 1023.16 1023.20 1023.28 1023.36
1016.16 1016.32 1016.48 1016.56 1016.68 1016.80 1016.96 1017.12 1017.24 1017.40 1017.60 1017.76 1017.96 1018.16 1018.36 1018.60 1018.84 1019.04 1019.20 1019.32 1019.40 1019.60 1019.76 1019.96 1020.08 1020.20 1020.32 1020.48 1020.64 1020.84 1020.96 1021.04 1021.08 1021.12 1021.20 1021.32 1021.36 1021.48 1021.52 1021.60 1021.68 1021.76 1021.92 1022.04 1022.16 1022.20 1022.28 1022.28 1022.28 1022.36 1022.44 1022.48 1022.44 1022.48 1022.56 1022.60 1022.60 1022.60 1022.60 1022.56 1022.56 1022.56 1022.60 1022.76 1022.88 1022.96 1023.04 1023.08 1023.20
1016.12 1016.28 1016.40 1016.52 1016.68 1016.84 1017.04 1017.24 1017.44 1017.64 1017.84 1018.04 1018.20 1018.40 1018.60 1018.80 1018.96 1019.12 1019.24 1019.36 1019.52 1019.64 1019.80 1019.92 1020.04 1020.20 1020.36 1020.56 1020.68 1020.80 1020.96 1021.04 1021.08 1021.12 1021.16 1021.20 1021.28 1021.36 1021.44 1021.48 1021.52 1021.60 1021.72 1021.84 1021.92 1022.00 1022.04 1022.04 1022.04 1022.16 1022.24 1022.24 1022.20 1022.24 1022.32 1022.36 1022.36 1022.36 1022.36 1022.36 1022.36 1022.40 1022.40 1022.48 1022.60 1022.76 1022.84 1022.88 1023.04
1016.20 1016.32 1016.48 1016.64 1016.80 1017.00 1017.20 1017.40 1017.60 1017.88 1018.04 1018.24 1018.40 1018.56 1018.76 1018.88 1019.04 1019.16 1019.28 1019.48 1019.60 1019.76 1019.84 1019.96 1020.08 1020.24 1020.40 1020.56 1020.64 1020.76 1020.88 1021.00 1021.04 1021.04 1021.08 1021.16 1021.20 1021.32 1021.40 1021.44 1021.48 1021.48 1021.56 1021.60 1021.68 1021.76 1021.80 1021.84 1021.88 1021.96 1022.04 1021.96 1021.96 1022.00 1022.04 1022.12 1022.20 1022.16 1022.12 1022.12 1022.12 1022.16 1022.16 1022.20 1022.32 1022.48 1022.60 1022.64 1022.76
Wind_Speed
13 11 9 8 8 8 8 7 7 7 8 9 9 9 9 9 9 8 8 8 8 7 7 7 8 8 9 11 12 12 11 11 10 10 10 10 9 9 9 8 8 7 7 6 6 6 5 5 5 4 3 3 3 3 3 3 4 4 5 5 4 4 5 6 6 6 6 6 4
14 13 11 9 8 7 6 6 6 7 7 8 8 9 10 9 9 9 9 9 8 7 7 6 8 9 10 12 12 12 11 11 11 11 10 10 9 9 9 8 8 8 7 7 7 6 5 6 5 4 3 3 3 3 3 3 4 4 5 6 5 4 4 5 5 6 6 6 5
14 13 11 10 9 8 7 7 8 9 10 9 9 9 9 9 8 8 8 8 8 7 7 6 8 10 11 12 11 11 11 11 12 11 10 9 9 9 9 8 8 8 7 7 7 6 5 6 5 4 3 3 4 4 4 3 4 4 5 6 4 3 3 4 4 4 4 4 5
14 13 13 12 13 12 10 9 10 12 12 10 9 9 8 8 7 7 8 8 9 8 7 8 8 9 10 11 11 11 11 11 12 11 10 9 9 9 9 8 8 8 7 7 7 6 6 6 4 3 3 4 4 4 3 3 4 4 4 4 3 3 4 3 3 3 3 3 4
15 14 13 13 15 14 12 11 12 12 11 9 8 8 8 7 7 7 7 8 8 8 8 9 9 9 9 11 12 12 12 11 11 10 10 10 9 9 9 9 9 8 8 7 7 7 6 6 4 3 3 4 3 3 3 4 4 4 3 2 3 3 3 3 3 3 3 3 3
15 14 14 13 14 13 12 11 12 11 10 8 9 9 9 8 7 8 8 8 9 9 10 10 9 9 10 11 12 12 12 11 10 10 10 10 9 9 9 9 9 8 8 7 7 7 6 6 4 3 3 3 3 3 3 4 4 4 3 3 3 3 3 3 3 3 3 4 4
15 15 14 14 14 13 12 11 11 10 10 9 11 12 12 10 10 10 10 9 9 9 9 9 9 9 10 11 12 11 11 10 9 10 10 9 9 9 9 9 9 9 8 7 7 7 6 5 4 3 3 3 2 3 3 4 4 4 4 4 3 3 3 4 3 3 4 5 6
14 14 14 14 15 15 14 13 11 11 10 9 12 13 14 13 13 13 12 10 9 9 9 8 10 11 12 12 12 12 11 11 10 9 9 9 9 9 9 9 9 9 8 8 7 7 6 5 4 4 4 3 3 3 4 4 5 5 5 5 4 3 3 3 3 3 4 6 6
13 13 14 14 15 15 15 14 13 12 12 11 13 14 14 14 14 14 12 10 10 10 10 9 12 13 13 13 13 12 11 11 10 10 9 9 9 9 9 9 9 9 8 7 7 7 7 5 4 4 4 4 4 4 5 5 6 6 5 5 4 3 3 3 4 4 5 6 6
14 14 14 14 14 14 14 14 13 13 14 13 14 14 14 13 14 13 12 10 10 10 11 11 12 13 13 14 13 12 11 10 10 10 10 9 10 10 10 9 9 9 8 7 7 7 7 5 5 5 5 5 5 5 6 6 6 6 6 4 4 4 4 4 4 5 5 6 6
16 15 15 14 14 14 14 13 13 13 13 13 14 14 14 14 14 13 12 10 11 12 12 12 13 13 13 13 12 12 11 10 10 10 10 10 10 10 10 9 10 10 9 8 7 7 6 6 6 7 7 6 6 6 6 7 7 7 6 4 4 5 5 5 5 5 5 6 6
16 15 14 14 14 14 13 13 12 12 13 13 14 14 14 13 14 13 12 12 12 13 13 12 13 13 12 11 11 11 10 10 10 10 10 10 10 10 10 10 10 10 10 9 8 7 6 7 8 8 8 8 6 6 6 7 7 7 7 5 5 5 5 5 5 5 4 5 5
15 14 14 13 13 13 13 13 12 12 12 13 14 13 13 13 13 13 13 13 13 12 11 11 12 12 11 11 11 10 10 10 10 10 10 10 10 10 10 10 10 10 9 8 8 7 7 8 9 10 10 9 7 7 7 8 8 8 7 7 6 6 6 6 5 5 4 5 5
13 13 13 13 13 13 13 13 11 11 12 13 13 12 12 12 12 12 12 13 12 11 10 10 10 10 10 11 11 11 11 10 10 11 10 10 10 10 10 10 10 9 9 7 8 8 8 9 10 10 10 10 9 8 8 8 8 8 8 7 7 7 6 6 6 5 5 5 6
12 12 13 13 13 13 12 13 11 11 11 13 12 11 11 10 10 10 11 12 12 10 10 10 9 9 10 11 11 12 12 11 11 11 11 11 11 11 10 10 10 9 8 8 8 8 9 10 10 10 10 10 10 9 8 8 8 8 8 7 7 7 6 6 6 6 6 6 6
12 12 12 13 13 13 12 12 10 10 11 11 11 11 10 9 9 9 10 11 10 9 9 10 10 9 9 10 11 12 12 11 12 12 12 12 11 11 11 10 10 10 9 9 8 9 9 9 9 9 9 9 9 9 8 8 8 8 7 7 7 7 6 6 7 7 7 7 7
12 12 13 13 14 14 13 12 10 10 10 11 11 11 10 9 8 9 10 11 10 10 10 12 10 10 10 10 10 11 11 11 12 12 12 12 12 12 11 11 11 11 10 10 10 10 10 9 8 8 8 8 7 8 8 8 8 7 7 7 7 6 6 7 7 7 7 7 7
12 13 13 14 14 15 14 14 12 11 12 12 11 10 9 9 9 9 10 11 11 11 12 12 11 11 11 11 10 10 10 11 12 12 12 13 13 12 12 12 11 11 11 10 10 10 10 10 8 7 7 6 6 6 6 7 7 7 7 7 7 6 6 7 7 7 7 7 7
13 13 13 14 15 15 15 14 13 13 12 12 11 10 10 10 10 11 11 11 12 12 13 13 12 12 12 12 11 10 10 11 12 13 13 13 12 12 12 12 11 11 11 10 10 10 10 9 8 7 7 6 6 6 6 6 6 6 6 6 7 7 7 7 7 7 7 7 6
12 13 14 14 15 15 14 14 13 12 11 10 10 11 11 11 12 13 13 13 12 12 13 13 12 12 12 13 12 11 11 10 12 13 13 12 12 12 12 12 11 10 10 9 9 9 9 8 8 8 7 7 7 6 6 6 6 6 6 6 6 7 7 7 7 7 7 6 6
11 11 12 13 13 13 13 13 12 11 10 10 11 12 12 13 13 14 14 13 12 12 12 13 13 13 13 13 13 13 11 9 11 11 12 11 11 11 11 10 10 9 9 8 8 8 8 8 8 8 8 8 7 7 7 6 6 6 6 6 6 7 7 7 7 7 6 6 6
9 9 9 10 11 11 11 11 10 10 10 10 11 12 13 13 13 13 13 12 12 12 12 12 13 13 13 13 14 13 12 9 10 10 10 10 10 9 9 8 8 8 8 8 8 8 8 8 8 8 8 8 8 8 7 7 7 7 7 6 6 7 7 7 7 6 6 6 6
9 8 9 9 10 10 10 10 10 10 10 11 11 12 12 12 12 11 11 10 11 11 12 11 11 12 13 13 13 13 12 10 10 9 9 8 8 8 7 7 7 8 8 8 8 8 8 7 7 7 8 8 8 8 8 8 7 7 7 7 7 7 7 7 7 6 6 6 6
12 11 10 8 10 10 11 11 11 12 12 12 12 12 12 11 11 10 10 10 11 12 12 10 10 11 11 12 12 12 12 11 11 10 9 8 8 7 7 6 7 7 7 6 6 7 7 6 6 7 7 7 7 7 7 8 7 7 8 8 8 8 8 7 7 7 6 6 6
14 13 12 11 12 12 12 12 13 14 14 14 13 13 12 12 11 10 10 11 11 11 11 10 10 9 9 9 10 10 11 11 11 11 10 9 9 8 7 6 6 6 5 5 6 7 7 6 6 6 6 7 7 6 6 7 7 8 8 8 8 8 8 8 7 7 7 7 7
14 14 14 14 13 13 13 13 13 13 13 12 12 12 12 12 11 10 10 11 11 11 11 10 9 8 8 8 9 9 9 10 10 11 11 10 10 9 8 6 6 5 4 5 7 8 9 8 7 6 6 6 6 6 6 6 7 7 7 8 8 9 9 8 8 8 8 7 7
14 14 14 14 14 13 13 13 12 11 10 10 11 11 11 11 10 10 11 10 10 10 9 9 9 8 8 8 10 10 10 9 9 10 11 11 10 9 8 7 5 4 4 6 8 10 10 10 9 8 7 7 6 6 6 6 6 6 7 7 8 9 9 9 9 9 9 8 8
14 14 14 13 13 13 13 12 11 10 10 10 10 10 10 10 10 10 11 10 10 9 9 8 8 7 7 7 9 11 11 11 10 10 10 10 10 9 8 6 5 5 5 7 9 10 11 11 11 10 9 7 6 6 6 5 5 6 6 7 8 9 9 9 9 9 9 9 9
14 13 13 13 13 12 11 11 11 11 10 10 9 8 8 9 10 10 11 10 10 10 9 8 7 7 7 8 9 10 11 11 10 9 9 9 9 8 7 6 5 5 6 7 9 10 11 11 11 11 11 9 6 5 4 4 4 5 6 7 8 9 9 9 8 8 8 9 9
13 12 11 12 11 11 10 11 11 10 10 9 8 8 8 8 9 10 11 11 11 11 9 8 7 8 8 9 9 9 10 10 9 8 8 9 8 8 7 6 5 5 5 7 9 10 10 11 12 12 12 10 7 5 4 4 5 6 7 8 9 9 10 9 9 9 9 8 8
11 10 10 10 10 10 10 10 10 9 9 8 8 9 9 9 10 11 11 11 11 10 9 8 9 10 10 9 9 9 9 8 8 8 8 8 8 7 6 5 5 4 5 7 9 10 11 12 12 12 12 11 7 5 4 5 6 7 8 9 10 11 11 10 10 10 10 9 9
8 8 9 9 9 9 9 9 9 9 9 9 10 10 11 11 12 12 11 10 10 9 9 9 10 10 9 9 8 8 8 8 7 7 8 8 7 6 5 4 4 4 5 7 9 10 11 12 12 13 12 12 8 6 6 7 8 9 9 10 11 12 11 10 9 10 11 11 10
7 7 8 8 8 8 8 8 8 9 9 10 11 12 12 13 12 11 11 10 9 9 9 9 10 10 9 9 8 8 8 8 8 8 7 7 6 5 4 3 3 4 5 8 10 11 12 12 13 13 13 12 9 7 8 9 9 9 9 10 11 12 12 11 10 10 11 11 10
7 7 7 8 8 8 8 8 8 9 9 11 12 12 12 12 12 11 10 9 8 8 8 9 9 9 9 9 9 9 8 8 8 8 7 6 5 5 4 3 3 4 6 9 11 12 12 13 13 13 13 12 9 8 9 10 9 9 9 10 11 11 11 11 11 11 11 11 10
7 8 8 8 8 8 8 9 9 10 11 11 12 12 12 11 11 11 10 8 7 7 7 7 7 7 7 8 8 9 9 8 7 7 6 6 6 5 4 5 4 5 8 11 12 13 13 13 13 13 12 11 9 8 9 10 10 10 11 11 11 11 11 11 10 10 10 10 10
8 8 8 8 8 9 9 10 10 11 11 12 12 11 11 10 10 9 8 7 7 7 7 7 6 7 7 8 8 8 8 8 7 6 6 6 6 6 6 7 6 7 9 11 12 13 13 13 13 13 13 10 8 8 8 8 9 10 11 12 12 12 11 11 10 9 9 9 9
8 8 8 8 9 10 10 10 11 11 11 11 11 10 10 9 8 7 6 7 7 8 7 7 7 8 8 8 8 7 7 6 6 6 5 5 6 7 7 8 8 8 9 11 12 13 13 13 14 14 13 10 9 8 7 7 8 9 10 11 12 12 11 10 9 9 9 9 9
8 9 9 9 9 10 10 10 10 11 11 10 9 8 8 7 6 6 6 7 7 8 8 8 8 9 9 8 7 6 5 5 6 6 6 6 7 7 8 9 8 8 9 11 12 13 13 14 15 14 13 10 9 8 7 7 7 8 9 10 10 11 10 8 7 8 9 10 10
9 9 9 9 10 9 9 9 9 8 8 6 6 6 6 6 5 6 6 7 7 8 8 8 8 8 8 7 6 5 4 4 5 5 6 7 7 8 8 9 8 7 8 10 12 13 14 15 15 14 13 11 10 8 7 7 8 9 9 9 9 9 9 8 7 7 8 10 12
9 9 9 8 8 7 7 7 6 5 4 5 5 5 6 6 6 6 6 6 7 7 8 8 8 7 6 6 5 5 4 4 4 5 6 7 8 8 8 8 7 7 7 8 11 13 14 14 14 14 13 11 10 8 7 7 8 9 9 9 9 8 8 8 7 7 7 9 10
7 7 6 6 5 5 5 5 5 5 5 6 6 6 6 6 7 7 7 6 6 6 6 6 7 6 6 5 5 5 5 5 6 6 7 7 7 7 6 7 7 7 8 9 10 11 12 13 13 13 13 11 10 8 7 7 8 9 10 10 9 9 8 8 7 7 7 8 8
Wind_Direction
181 181 181 181 182 183 183 179 176 176 177 178 178 178 179 182 181 181 181 183 185 184 182 179 177 176 175 175 176 178 181 182 182 181 180 180 181 182 182 182 181 181 180 178 177 178 181 184 183 182 185 191 193 191 188 188 191 196 200 205 209 210 210 211 211 208 206 208 209
184 183 181 181 183 183 181 176 175 177 180 182 180 179 180 183 182 182 182 185 185 182 179 176 176 175 174 175 177 179 180 181 180 180 181 183 183 183 183 183 183 182 181 178 177 178 180 181 181 181 182 184 191 193 192 190 193 198 203 206 206 207 211 218 218 215 211 210 206
184 182 182 183 184 184 183 179 179 182 184 185 184 182 182 184 183 183 182 184 183 179 176 175 176 175 175 175 178 180 181 181 179 180 181 183 184 185 185 184 183 182 182 181 181 180 179 178 179 179 180 183 192 194 192 184 192 201 206 206 202 202 208 220 221 217 213 213 207
185 183 184 186 187 188 187 184 183 184 184 184 183 184 184 185 184 182 181 180 179 179 178 176 175 175 176 176 180 182 183 181 179 179 181 183 184 186 186 184 182 183 183 184 183 181 178 175 176 179 184 188 194 195 190 177 188 198 206 204 200 203 209 218 217 215 213 216 209
188 187 187 188 190 190 189 187 186 185 183 180 180 182 184 186 184 181 179 178 180 181 180 177 174 174 176 178 181 182 183 181 180 180 181 182 184 185 186 185 184 183 183 184 183 180 176 174 176 182 189 191 194 194 187 175 184 192 198 196 200 207 213 218 215 213 214 215 210
190 190 190 190 191 192 193 192 188 184 181 178 180 182 184 184 182 181 180 181 181 180 177 175 173 173 176 179 181 182 181 180 181 182 182 182 182 184 185 187 186 184 182 182 180 177 175 176 178 183 188 190 196 190 180 175 185 189 192 194 199 207 214 218 215 213 215 217 213
192 191 191 192 192 193 194 192 187 183 180 181 184 186 186 184 183 183 182 181 177 176 175 175 175 175 176 179 181 181 181 180 183 184 184 183 182 184 186 188 186 184 181 179 177 176 177 181 184 185 185 187 190 183 179 182 188 192 195 196 196 203 214 219 213 215 219 220 218
193 192 192 192 193 194 194 192 185 182 182 186 189 189 188 185 183 182 181 178 177 176 177 178 179 179 178 179 180 180 180 181 183 185 186 185 184 185 187 186 185 183 181 178 177 177 179 183 191 191 187 185 186 182 180 185 190 196 200 200 193 197 208 217 213 215 219 221 221
194 194 194 194 195 195 194 191 186 184 185 189 191 190 188 185 183 181 180 180 179 178 178 181 182 181 179 179 178 179 180 182 183 185 187 188 187 187 186 185 184 182 180 178 179 179 179 183 194 195 192 188 187 181 179 182 191 198 203 203 194 194 201 212 213 217 221 222 223
195 195 194 194 195 194 192 190 188 187 188 191 191 189 186 185 183 182 182 181 178 178 180 182 181 180 180 178 178 178 181 183 184 185 187 189 190 188 186 185 183 182 180 179 181 181 182 187 196 197 195 193 190 183 179 182 192 198 201 200 193 193 196 202 209 215 219 222 224
195 194 193 193 192 190 189 187 188 189 191 192 190 187 186 186 186 185 183 179 177 180 183 182 180 179 179 178 177 179 181 184 185 185 187 190 191 190 187 184 184 183 182 180 180 182 186 191 196 197 196 195 191 186 182 186 194 199 200 197 194 196 199 199 203 210 217 222 223
196 194 192 190 188 186 186 186 188 190 192 192 190 188 187 188 188 186 182 179 180 182 183 181 180 179 178 177 177 179 181 184 185 186 187 190 191 190 188 185 185 185 184 182 181 183 189 195 197 198 196 194 193 191 189 190 196 199 199 195 196 202 205 202 202 207 213 217 221
195 192 189 187 184 183 184 187 189 191 192 193 191 189 188 189 188 185 182 180 182 181 180 178 180 180 178 176 176 178 181 184 185 186 187 189 190 189 188 186 187 187 187 184 184 187 192 197 200 200 199 195 195 195 194 193 198 201 201 197 200 207 209 206 202 202 204 209 214
192 188 186 182 180 182 185 188 190 192 193 193 191 189 188 188 186 185 184 182 181 178 175 174 179 181 179 175 175 177 181 183 185 187 188 189 189 189 188 187 188 189 189 187 188 191 196 199 203 204 203 199 197 195 195 195 200 204 205 203 205 208 210 206 200 195 196 201 206
189 186 182 179 179 182 186 190 192 193 194 193 191 189 187 185 184 184 184 183 180 175 171 173 178 181 179 175 176 178 180 182 185 188 190 189 190 190 189 189 190 191 192 190 191 196 201 205 207 208 208 205 200 195 194 196 202 205 208 208 208 209 207 201 194 192 193 196 198
187 184 181 178 181 185 188 191 193 193 193 193 190 188 185 183 181 182 183 182 178 174 172 175 177 177 177 177 178 179 180 183 186 189 191 191 191 191 191 190 191 193 195 193 195 200 205 210 211 213 212 209 203 197 193 196 201 205 208 209 210 208 203 195 190 190 192 193 197
186 184 181 181 184 187 190 192 193 193 192 192 189 187 184 181 177 179 183 182 177 176 176 178 177 175 175 177 179 180 182 184 188 191 193 193 192 192 192 193 194 195 196 197 198 202 207 211 213 215 214 212 205 198 193 194 199 203 205 207 207 205 200 191 187 187 188 191 197
186 184 183 184 187 190 192 193 193 192 191 189 186 185 183 179 176 180 184 184 180 178 178 179 178 176 175 176 179 182 185 188 191 194 195 195 194 193 194 195 196 197 198 199 201 204 207 208 209 210 210 209 204 197 193 193 196 199 201 202 202 200 195 190 186 185 186 189 196
187 186 186 188 190 192 193 193 193 191 189 186 183 183 183 182 181 182 185 187 184 180 178 178 178 178 177 177 179 183 188 192 195 197 198 197 196 195 196 197 197 198 199 202 205 206 206 204 202 202 202 202 199 195 192 191 193 194 196 196 196 194 192 188 186 185 187 190 194
189 188 189 191 192 193 194 194 193 190 187 183 181 183 186 187 186 186 187 188 185 182 180 178 179 179 179 178 180 185 190 195 197 199 200 199 198 198 198 198 198 199 201 204 207 208 206 201 199 198 198 197 195 192 189 188 189 191 192 193 192 191 188 186 184 185 188 191 194
192 192 193 195 195 195 195 194 191 188 184 182 183 187 190 191 190 190 189 186 183 182 182 182 181 180 180 180 182 186 191 195 199 201 202 201 201 200 200 199 199 200 202 205 208 208 207 203 199 197 196 196 195 191 188 185 187 187 189 191 190 188 186 184 184 186 189 192 195
194 196 199 202 201 199 196 193 189 186 185 186 190 192 194 194 194 192 188 181 179 181 185 186 184 183 182 182 184 187 190 193 198 202 203 202 202 202 200 199 199 200 203 206 208 208 207 204 200 198 196 198 197 192 188 185 185 186 188 190 187 185 184 185 186 189 191 194 198
190 197 203 208 208 205 199 193 190 188 190 192 196 198 199 198 194 189 182 176 178 183 187 188 187 186 185 184 186 187 189 191 197 200 202 202 203 202 200 199 200 203 205 207 208 206 204 202 200 199 199 200 197 193 188 185 186 186 187 188 187 186 186 188 190 193 194 196 200
187 191 196 202 206 206 202 196 193 192 193 195 197 199 199 197 191 183 178 178 182 186 188 189 188 187 186 186 187 188 189 192 194 197 198 200 202 200 198 199 203 206 208 208 205 202 200 196 197 199 201 201 197 192 188 188 189 189 189 189 189 189 190 192 194 196 198 198 201
188 190 193 196 202 204 204 201 198 197 196 195 195 195 194 191 186 183 181 183 186 188 189 189 187 185 184 185 187 189 191 194 195 194 195 198 201 200 199 201 206 209 209 209 202 200 199 195 193 194 196 197 193 189 188 191 193 192 191 189 191 192 193 194 197 200 203 204 204
193 195 196 197 200 203 205 206 205 203 200 195 192 190 188 185 183 183 186 188 189 189 189 189 185 182 181 184 186 190 194 197 197 196 196 198 200 200 201 203 206 208 209 210 203 201 199 197 193 189 188 189 186 185 187 195 198 198 195 193 194 194 195 195 199 202 205 208 207
200 201 201 200 200 203 206 209 209 207 202 195 190 187 184 179 180 185 189 190 189 188 188 189 185 181 180 185 188 191 195 198 199 199 200 200 199 199 201 204 204 204 205 206 202 199 198 197 193 189 185 185 182 183 185 190 194 198 201 201 201 200 198 198 199 201 203 206 207
204 204 203 201 201 202 205 206 206 204 200 195 190 185 181 177 181 186 190 190 187 186 187 190 186 184 183 187 191 194 196 197 198 200 202 202 200 199 199 202 200 201 202 201 199 197 196 195 192 188 184 180 180 182 183 183 187 196 205 210 209 206 203 201 201 201 201 204 205
206 205 203 201 200 200 199 199 200 199 196 191 186 181 178 181 186 189 191 190 188 189 190 191 186 185 187 191 194 196 197 198 197 197 198 199 198 198 198 199 199 198 197 195 195 195 195 195 192 189 185 182 181 182 185 188 195 204 211 214 212 209 206 204 203 202 201 202 203
206 204 202 200 198 195 193 193 194 192 188 183 180 178 180 186 192 194 195 194 194 194 193 188 184 187 192 194 194 196 197 198 196 193 192 193 194 195 196 195 196 195 192 191 193 194 194 194 192 190 187 186 184 184 192 204 214 218 219 218 213 210 208 206 205 203 202 202 203
206 202 199 196 194 191 189 187 185 181 177 175 177 180 185 192 198 200 201 200 199 196 192 186 186 190 193 194 193 195 196 193 190 189 189 189 189 189 189 186 191 192 192 190 193 194 194 194 193 191 190 190 192 196 207 221 226 227 224 219 213 209 207 207 205 205 204 204 204
202 197 194 191 189 186 182 178 174 172 172 175 181 186 191 196 200 201 202 201 198 194 189 187 190 193 194 193 194 194 192 186 185 185 186 185 183 179 173 171 186 194 195 191 193 194 195 195 194 193 193 194 200 211 222 230 232 231 228 222 215 209 206 204 205 205 205 205 205
191 188 186 185 182 178 173 170 169 171 175 182 188 193 196 198 198 198 197 197 193 189 188 189 191 191 192 190 190 189 186 181 180 181 181 179 168 158 154 167 190 196 195 192 194 195 195 195 195 195 197 200 209 221 230 234 234 232 228 223 216 211 208 206 207 206 206 206 206
178 178 178 179 175 170 168 168 171 176 183 191 196 199 200 199 197 195 193 191 187 186 186 188 188 188 187 186 185 182 179 175 176 176 173 165 151 147 156 186 199 194 190 192 194 195 196 196 197 199 203 207 217 228 234 234 234 231 227 223 218 214 211 209 210 210 209 207 207
172 172 173 175 171 168 169 173 178 184 190 197 201 202 202 200 198 194 190 182 178 178 179 182 181 180 179 180 179 175 171 169 170 169 162 152 146 154 176 203 207 196 190 192 195 196 197 197 201 206 211 216 224 231 234 233 232 230 227 224 220 216 213 213 213 214 213 211 210
168 167 167 170 169 171 175 180 185 191 196 202 203 202 201 200 197 190 179 167 166 167 169 170 168 168 170 173 173 171 168 166 163 160 155 150 155 170 191 208 208 200 194 194 196 197 199 201 207 213 218 225 229 230 229 229 231 230 228 226 223 219 216 214 215 215 215 214 213
164 163 164 168 173 178 182 186 191 196 200 204 203 201 197 195 186 174 161 157 159 162 163 163 164 166 168 169 169 168 167 164 159 157 157 159 172 187 200 208 207 201 197 197 198 200 204 209 215 219 224 230 231 228 224 225 229 230 229 228 228 224 220 217 216 216 216 215 214
163 164 167 174 180 185 189 191 196 200 202 203 199 193 185 175 163 154 152 157 159 161 161 161 165 167 167 166 163 162 162 164 162 160 164 174 187 196 203 208 206 201 197 198 201 205 211 218 222 224 226 232 230 226 222 223 227 229 230 230 230 228 224 220 218 218 218 218 216
167 171 176 182 187 190 193 194 198 199 197 189 179 167 156 146 142 146 152 158 158 158 158 161 164 165 163 158 156 155 158 165 166 169 175 187 195 199 202 207 208 206 202 200 205 212 218 225 228 228 228 232 230 225 221 222 227 230 231 232 233 231 227 223 220 221 222 222 221
172 178 183 187 188 189 189 188 187 181 168 152 145 139 136 134 137 143 149 152 153 155 157 161 162 160 157 154 155 157 162 172 180 186 191 197 199 200 201 209 217 220 218 213 216 220 226 231 233 231 229 232 229 225 221 222 227 230 231 232 233 233 230 225 222 222 225 226 224
170 174 177 176 171 166 163 158 147 135 128 128 130 131 132 134 136 140 144 146 151 155 158 160 158 156 156 157 161 167 176 187 196 201 203 204 202 201 206 218 231 238 240 235 231 231 234 237 237 233 230 231 229 225 220 221 226 230 232 233 232 233 232 229 225 223 224 226 226